Time,TemperatureF,DewpointF,PressureIn,WindDirection,WindDirectionDegrees,WindSpeedMPH,WindSpeedGustMPH,Humidity,HourlyPrecipIn,Conditions,Clouds,dailyrainin,SolarRadiationWatts/m^2,SoftwareType,DateUTC
2013-03-21 00:03:00,32.0,27.0,-100.00,South,185,2.0,7.0,83,0.00,,,0.00,0.000000,,2013-03-21 04:03:00,
2013-03-21 00:13:00,32.0,27.0,-100.00,South,185,2.0,7.0,83,0.00,,,0.00,0.000000,,2013-03-21 04:13:00,
2013-03-21 00:43:00,30.0,28.0,-100.00,SSW,207,4.0,22.0,92,0.00,,,0.00,0.000000,,2013-03-21 04:43:00,
2013-03-21 00:53:00,30.0,28.0,-100.00,SSW,207,4.0,22.0,92,0.00,,,0.00,0.000000,,2013-03-21 04:53:00,
2013-03-21 01:03:00,30.0,28.0,-100.00,SSW,207,4.0,22.0,92,0.00,,,0.00,0.000000,,2013-03-21 05:03:00,
2013-03-21 01:12:00,30.0,28.0,-100.00,SSW,207,4.0,22.0,92,0.00,,,0.00,0.000000,,2013-03-21 05:12:00,
2013-03-21 01:44:00,29.0,19.0,-100.00,WSW,239,6.0,12.0,66,0.00,,,0.00,0.000000,,2013-03-21 05:44:00,
2013-03-21 01:52:00,29.0,19.0,-100.00,WSW,239,6.0,12.0,66,0.00,,,0.00,0.000000,,2013-03-21 05:52:00,
2013-03-21 02:03:00,29.0,19.0,-100.00,WSW,239,6.0,12.0,66,0.00,,,0.00,0.000000,,2013-03-21 06:03:00,
2013-03-21 02:12:00,29.0,19.0,-100.00,WSW,239,6.0,12.0,66,0.00,,,0.00,0.000000,,2013-03-21 06:12:00,
2013-03-21 02:42:00,28.0,13.0,-100.00,SW,222,5.0,12.0,52,0.00,,,0.00,0.000000,,2013-03-21 06:42:00,
2013-03-21 02:52:00,28.0,13.0,-100.00,SW,222,5.0,12.0,52,0.00,,,0.00,0.000000,,2013-03-21 06:52:00,
2013-03-21 03:02:00,28.0,13.0,-100.00,SW,222,5.0,12.0,52,0.00,,,0.00,0.000000,,2013-03-21 07:02:00,
2013-03-21 03:13:00,28.0,13.0,-100.00,SW,222,5.0,12.0,52,0.00,,,0.00,0.000000,,2013-03-21 07:13:00,
2013-03-21 03:43:00,27.0,11.0,-100.00,SSW,207,5.0,17.0,51,0.00,,,0.00,0.000000,,2013-03-21 07:43:00,
2013-03-21 03:53:00,27.0,11.0,-100.00,SSW,207,5.0,17.0,51,0.00,,,0.00,0.000000,,2013-03-21 07:53:00,
2013-03-21 04:02:00,27.0,11.0,-100.00,SSW,207,5.0,17.0,51,0.00,,,0.00,0.000000,,2013-03-21 08:02:00,
2013-03-21 04:13:00,27.0,11.0,-100.00,SSW,207,5.0,17.0,51,0.00,,,0.00,0.000000,,2013-03-21 08:13:00,
2013-03-21 04:43:00,26.0,11.0,-100.00,SW,224,6.0,16.0,52,0.00,,,0.00,0.000000,,2013-03-21 08:43:00,
2013-03-21 04:52:00,26.0,11.0,-100.00,SW,224,6.0,16.0,52,0.00,,,0.00,0.000000,,2013-03-21 08:52:00,
2013-03-21 05:02:00,26.0,11.0,-100.00,SW,224,6.0,16.0,52,0.00,,,0.00,0.000000,,2013-03-21 09:02:00,
2013-03-21 05:11:00,26.0,11.0,-100.00,SW,224,6.0,16.0,52,0.00,,,0.00,0.000000,,2013-03-21 09:11:00,
2013-03-21 05:43:00,25.0,9.0,-100.00,WSW,243,6.0,12.0,50,0.00,,,0.00,0.000000,,2013-03-21 09:43:00,
2013-03-21 05:53:00,25.0,9.0,-100.00,WSW,243,6.0,12.0,50,0.00,,,0.00,0.000000,,2013-03-21 09:53:00,
2013-03-21 06:03:00,25.0,9.0,-100.00,WSW,243,6.0,12.0,50,0.00,,,0.00,0.000000,,2013-03-21 10:03:00,
2013-03-21 06:12:00,25.0,9.0,-100.00,WSW,243,6.0,12.0,50,0.00,,,0.00,0.000000,,2013-03-21 10:12:00,
2013-03-21 06:43:00,24.0,9.0,-100.00,SW,217,6.0,15.0,51,0.00,,,0.00,0.000000,,2013-03-21 10:43:00,
2013-03-21 06:53:00,24.0,9.0,-100.00,SW,217,6.0,15.0,51,0.00,,,0.00,0.000000,,2013-03-21 10:53:00,
2013-03-21 07:03:00,24.0,9.0,-100.00,SW,217,6.0,15.0,51,0.00,,,0.00,0.000000,,2013-03-21 11:03:00,
2013-03-21 07:13:00,24.0,9.0,-100.00,SW,217,6.0,15.0,51,0.00,,,0.00,0.000000,,2013-03-21 11:13:00,
2013-03-21 07:43:00,23.0,8.0,-100.00,WSW,240,5.0,11.0,51,0.00,,,0.00,0.000000,,2013-03-21 11:43:00,
2013-03-21 07:53:00,23.0,8.0,-100.00,WSW,240,5.0,11.0,51,0.00,,,0.00,0.000000,,2013-03-21 11:53:00,
2013-03-21 08:03:00,23.0,8.0,-100.00,WSW,240,5.0,11.0,51,0.00,,,0.00,0.000000,,2013-03-21 12:03:00,
2013-03-21 08:12:00,23.0,8.0,-100.00,WSW,240,5.0,11.0,51,0.00,,,0.00,0.000000,,2013-03-21 12:12:00,
2013-03-21 08:43:00,22.0,10.0,-100.00,WSW,258,6.0,13.0,58,0.00,,,0.00,15.000000,,2013-03-21 12:43:00,
2013-03-21 08:53:00,22.0,10.0,-100.00,WSW,258,6.0,13.0,58,0.00,,,0.00,15.000000,,2013-03-21 12:53:00,
2013-03-21 09:03:00,22.0,10.0,-100.00,WSW,258,6.0,13.0,58,0.00,,,0.00,15.000000,,2013-03-21 13:03:00,
2013-03-21 09:12:00,22.0,10.0,-100.00,WSW,258,6.0,13.0,58,0.00,,,0.00,15.000000,,2013-03-21 13:12:00,
2013-03-21 09:43:00,22.0,8.0,-100.00,SW,222,6.0,14.0,55,0.00,,,0.00,48.000000,,2013-03-21 13:43:00,
2013-03-21 09:53:00,22.0,8.0,-100.00,SW,222,6.0,14.0,55,0.00,,,0.00,48.000000,,2013-03-21 13:53:00,
2013-03-21 10:02:00,22.0,8.0,-100.00,SW,222,6.0,14.0,55,0.00,,,0.00,48.000000,,2013-03-21 14:02:00,
2013-03-21 10:12:00,22.0,8.0,-100.00,SW,222,6.0,14.0,55,0.00,,,0.00,48.000000,,2013-03-21 14:12:00,
2013-03-21 10:43:00,23.0,7.0,-100.00,West,269,5.0,16.0,49,0.00,,,0.00,142.000000,,2013-03-21 14:43:00,
2013-03-21 10:52:00,23.0,7.0,-100.00,West,269,5.0,16.0,49,0.00,,,0.00,142.000000,,2013-03-21 14:52:00,
2013-03-21 11:04:00,23.0,7.0,-100.00,West,269,5.0,16.0,49,0.00,,,0.00,142.000000,,2013-03-21 15:04:00,
2013-03-21 11:12:00,23.0,7.0,-100.00,West,269,5.0,16.0,49,0.00,,,0.00,142.000000,,2013-03-21 15:12:00,
2013-03-21 11:43:00,24.0,8.0,-100.00,West,280,6.0,13.0,49,0.00,,,0.00,225.000000,,2013-03-21 15:43:00,
2013-03-21 11:53:00,24.0,8.0,-100.00,West,280,6.0,13.0,49,0.00,,,0.00,225.000000,,2013-03-21 15:53:00,
2013-03-21 12:03:00,24.0,8.0,-100.00,West,280,6.0,13.0,49,0.00,,,0.00,225.000000,,2013-03-21 16:03:00,
2013-03-21 12:12:00,24.0,8.0,-100.00,West,280,6.0,13.0,49,0.00,,,0.00,225.000000,,2013-03-21 16:12:00,
2013-03-21 12:43:00,26.0,7.0,-100.00,SW,229,7.0,14.0,43,0.00,,,0.00,373.000000,,2013-03-21 16:43:00,
2013-03-21 12:53:00,26.0,7.0,-100.00,SW,229,7.0,14.0,43,0.00,,,0.00,373.000000,,2013-03-21 16:53:00,
2013-03-21 13:03:00,26.0,7.0,-100.00,SW,229,7.0,14.0,43,0.00,,,0.00,373.000000,,2013-03-21 17:03:00,
2013-03-21 13:12:00,26.0,7.0,-100.00,SW,229,7.0,14.0,43,0.00,,,0.00,373.000000,,2013-03-21 17:12:00,
2013-03-21 13:43:00,26.0,9.0,-100.00,West,268,7.0,16.0,47,0.00,,,0.00,299.000000,,2013-03-21 17:43:00,
2013-03-21 13:53:00,26.0,9.0,-100.00,West,268,7.0,16.0,47,0.00,,,0.00,299.000000,,2013-03-21 17:53:00,
2013-03-21 14:02:00,26.0,9.0,-100.00,West,268,7.0,16.0,47,0.00,,,0.00,299.000000,,2013-03-21 18:02:00,
2013-03-21 14:12:00,26.0,9.0,-100.00,West,268,7.0,16.0,47,0.00,,,0.00,299.000000,,2013-03-21 18:12:00,
2013-03-21 14:43:00,27.0,10.0,-100.00,WSW,244,6.0,13.0,49,0.01,,,0.01,418.000000,,2013-03-21 18:43:00,
2013-03-21 14:52:00,27.0,10.0,-100.00,WSW,244,6.0,13.0,49,0.01,,,0.01,418.000000,,2013-03-21 18:52:00,
2013-03-21 15:02:00,27.0,10.0,-100.00,WSW,244,6.0,13.0,49,0.01,,,0.01,418.000000,,2013-03-21 19:02:00,
2013-03-21 15:12:00,27.0,10.0,-100.00,WSW,244,6.0,13.0,49,0.01,,,0.01,418.000000,,2013-03-21 19:12:00,
2013-03-21 15:43:00,28.0,8.0,-100.00,West,274,6.0,17.0,42,0.00,,,0.01,351.000000,,2013-03-21 19:43:00,
2013-03-21 15:53:00,28.0,8.0,-100.00,West,274,6.0,17.0,42,0.00,,,0.01,351.000000,,2013-03-21 19:53:00,
2013-03-21 16:02:00,28.0,8.0,-100.00,West,274,6.0,17.0,42,0.00,,,0.01,351.000000,,2013-03-21 20:02:00,
2013-03-21 16:13:00,28.0,8.0,-100.00,West,274,6.0,17.0,42,0.00,,,0.01,351.000000,,2013-03-21 20:13:00,
2013-03-21 16:43:00,29.0,9.0,-100.00,SW,231,6.0,16.0,43,0.00,,,0.01,378.000000,,2013-03-21 20:43:00,
2013-03-21 16:53:00,29.0,9.0,-100.00,SW,231,6.0,16.0,43,0.00,,,0.01,378.000000,,2013-03-21 20:53:00,
2013-03-21 17:03:00,29.0,9.0,-100.00,SW,231,6.0,16.0,43,0.00,,,0.01,378.000000,,2013-03-21 21:03:00,
2013-03-21 17:12:00,29.0,9.0,-100.00,SW,231,6.0,16.0,43,0.00,,,0.01,378.000000,,2013-03-21 21:12:00,
2013-03-21 17:43:00,26.0,12.0,-100.00,SW,222,5.0,16.0,55,0.00,,,0.01,103.000000,,2013-03-21 21:43:00,
2013-03-21 17:53:00,26.0,12.0,-100.00,SW,222,5.0,16.0,55,0.00,,,0.01,103.000000,,2013-03-21 21:53:00,
2013-03-21 18:03:00,26.0,12.0,-100.00,SW,222,5.0,16.0,55,0.00,,,0.01,103.000000,,2013-03-21 22:03:00,
2013-03-21 18:13:00,26.0,12.0,-100.00,SW,222,5.0,16.0,55,0.00,,,0.01,103.000000,,2013-03-21 22:13:00,
2013-03-21 18:43:00,29.0,16.0,-100.00,SSW,200,5.0,12.0,57,0.00,,,0.01,215.000000,,2013-03-21 22:43:00,
2013-03-21 18:53:00,29.0,16.0,-100.00,SSW,200,5.0,12.0,57,0.00,,,0.01,215.000000,,2013-03-21 22:53:00,
2013-03-21 19:02:00,29.0,16.0,-100.00,SSW,200,5.0,12.0,57,0.00,,,0.01,215.000000,,2013-03-21 23:02:00,
2013-03-21 19:12:00,29.0,16.0,-100.00,SSW,200,5.0,12.0,57,0.00,,,0.01,215.000000,,2013-03-21 23:12:00,
2013-03-21 19:43:00,26.0,9.0,-100.00,West,271,5.0,12.0,48,0.00,,,0.01,57.000000,,2013-03-21 23:43:00,
2013-03-21 19:53:00,26.0,9.0,-100.00,West,271,5.0,12.0,48,0.00,,,0.01,57.000000,,2013-03-21 23:53:00,
2013-03-21 20:03:00,26.0,9.0,-100.00,West,271,5.0,12.0,48,0.00,,,0.01,57.000000,,2013-03-22 00:03:00,
2013-03-21 20:12:00,26.0,9.0,-100.00,West,271,5.0,12.0,48,0.00,,,0.01,57.000000,,2013-03-22 00:12:00,
2013-03-21 20:42:00,25.0,10.0,-100.00,SW,234,3.0,9.0,53,0.00,,,0.01,4.000000,,2013-03-22 00:42:00,
2013-03-21 20:52:00,25.0,10.0,-100.00,SW,234,3.0,9.0,53,0.00,,,0.01,4.000000,,2013-03-22 00:52:00,
2013-03-21 21:03:00,25.0,10.0,-100.00,SW,234,3.0,9.0,53,0.00,,,0.01,4.000000,,2013-03-22 01:03:00,
2013-03-21 21:12:00,25.0,10.0,-100.00,SW,234,3.0,9.0,53,0.00,,,0.01,4.000000,,2013-03-22 01:12:00,
2013-03-21 21:43:00,24.0,12.0,-100.00,ESE,115,1.0,4.0,59,0.00,,,0.01,0.000000,,2013-03-22 01:43:00,
2013-03-21 21:53:00,24.0,12.0,-100.00,ESE,115,1.0,4.0,59,0.00,,,0.01,0.000000,,2013-03-22 01:53:00,
2013-03-21 22:03:00,24.0,12.0,-100.00,ESE,115,1.0,4.0,59,0.00,,,0.01,0.000000,,2013-03-22 02:03:00,
2013-03-21 22:12:00,24.0,12.0,-100.00,ESE,115,1.0,4.0,59,0.00,,,0.01,0.000000,,2013-03-22 02:12:00,
2013-03-21 22:43:00,24.0,9.0,-100.00,SSW,207,2.0,5.0,53,0.00,,,0.01,0.000000,,2013-03-22 02:43:00,
2013-03-21 22:53:00,24.0,9.0,-100.00,SSW,207,2.0,5.0,53,0.00,,,0.01,0.000000,,2013-03-22 02:53:00,
2013-03-21 23:02:00,24.0,9.0,-100.00,SSW,207,2.0,5.0,53,0.00,,,0.01,0.000000,,2013-03-22 03:02:00,
2013-03-21 23:12:00,24.0,9.0,-100.00,SSW,207,2.0,5.0,53,0.00,,,0.01,0.000000,,2013-03-22 03:12:00,
2013-03-21 23:43:00,22.0,11.0,-100.00,ENE,60,0.0,3.0,61,0.00,,,0.01,0.000000,,2013-03-22 03:43:00,
2013-03-21 23:53:00,22.0,11.0,-100.00,ENE,60,0.0,3.0,61,0.00,,,0.01,0.000000,,2013-03-22 03:53:00,